Lid_Strength_Index
0 0 1 0 -0 1 1 1 1 0 0 0 -0 -1 -1 1 -0 1 4 1 1 -1 1 3 3 4 4 5 5 7 11 14 13 12 11 10 10 10 9 7 7 6 6 5 3
-1 -0 -0 0 -0 -1 1 1 1 1 0 0 0 -1 -1 -0 1 3 -0 -1 -2 -1 3 4 5 5 7 6 6 9 12 11 9 10 11 9 9 9 9 8 9 8 5 3 3
-2 -2 -1 -1 -1 -1 -0 1 1 1 1 0 0 -0 -1 -1 4 4 -1 -1 -2 -0 3 4 4 5 7 6 7 8 11 10 9 9 9 9 10 9 9 10 7 8 6 4 4
-2 -2 -2 -2 -1 -1 -1 -0 1 1 1 0 0 -0 -1 1 11 2 -1 -1 -1 1 3 4 5 7 8 9 6 10 8 9 8 8 9 9 9 10 9 9 7 5 4 4 4
-2 -2 -2 -1 -1 -1 -1 -1 0 1 0 0 0 -1 1 6 6 -0 -0 -1 -0 2 3 5 6 7 9 8 8 9 9 7 7 7 9 8 9 9 10 6 5 4 4 5 4
-2 -2 -1 -2 -1 -1 -1 -1 -0 0 0 0 0 -1 4 9 0 -0 0 1 2 3 3 4 5 5 7 8 9 8 8 8 8 8 8 9 9 10 9 6 6 5 5 5 4
-2 -2 -2 -1 -1 -1 -1 -1 -1 -1 -0 0 0 1 5 6 0 -0 0 1 1 2 4 3 3 6 6 9 6 7 10 9 10 9 9 8 10 10 8 6 7 6 6 5 4
-2 -2 -2 -1 -1 -1 -1 -1 -1 -1 -0 -0 -0 3 8 1 -0 1 0 1 1 1 3 2 3 5 7 6 8 10 10 14 10 9 9 8 13 9 6 7 8 7 6 6 5
-2 -1 -2 -1 -1 -1 -1 -1 -1 -1 -1 -0 4 6 9 1 3 1 1 3 2 2 2 2 3 7 7 11 13 12 16 14 13 11 10 10 12 9 7 7 8 7 7 6 5
-2 -2 -2 -1 -1 -1 -1 -1 -1 -0 1 1 3 9 8 7 3 2 1 2 4 4 5 6 7 10 10 12 17 15 15 13 14 11 11 12 11 10 8 8 8 8 7 6 6
-2 -2 -2 -1 -1 -1 0 3 6 7 5 8 9 9 6 4 3 4 2 3 4 6 11 8 12 14 12 11 10 11 13 14 12 11 12 12 11 10 9 8 8 8 8 7 7
-2 -2 -2 -1 -1 -1 2 5 6 5 8 5 6 6 5 5 7 5 2 7 8 11 9 11 14 10 9 10 11 12 13 14 11 10 11 13 11 11 10 9 8 8 8 7 11
-2 -2 -2 -2 -1 2 5 5 2 4 10 8 6 7 6 5 8 7 5 6 9 11 11 13 11 9 10 11 13 13 13 13 14 11 11 13 13 13 11 11 10 9 8 8 11
-2 -2 -2 -1 2 4 6 2 2 5 17 13 9 6 5 6 10 4 4 6 9 11 10 11 9 10 11 12 11 15 11 11 12 14 17 12 19 13 12 11 12 11 10 12 12
-2 -1 -2 -1 4 6 3 2 3 7 25 12 9 3 5 9 8 8 4 6 10 10 11 13 11 12 13 12 10 13 10 11 12 14 15 15 17 14 12 13 12 12 13 12 12
-1 -1 -1 2 2 3 2 4 6 18 25 13 8 8 9 8 8 7 8 6 6 10 10 11 8 9 10 9 9 9 11 12 12 14 19 16 16 16 14 13 12 13 13 12 11
-1 -1 1 2 5 2 4 7 18 24 14 15 12 9 10 11 10 10 11 11 12 15 15 12 12 9 8 12 10 11 14 19 20 20 20 14 16 15 13 11 13 13 12 11 11
-1 0 2 2 2 3 6 14 24 23 22 9 10 10 12 11 10 10 12 12 10 11 14 16 18 12 9 11 13 13 13 18 22 22 20 16 18 15 11 12 12 12 12 11 12
-0 3 4 3 2 4 10 22 21 20 13 11 10 12 18 11 11 11 12 13 11 10 15 16 16 10 10 9 10 13 15 13 18 20 20 17 16 15 14 12 12 12 12 12 12
4 5 5 3 4 6 12 16 19 11 8 10 14 14 19 15 13 13 13 11 10 9 9 12 17 11 10 9 9 11 11 16 17 21 22 21 21 19 17 15 11 12 12 12 11
6 10 5 4 5 10 18 19 16 9 8 10 13 13 12 13 12 13 13 11 9 10 9 11 13 14 11 13 14 13 14 14 15 17 20 21 19 17 16 14 13 11 10 11 12
9 14 5 5 13 21 21 18 9 9 8 9 9 10 12 12 13 13 14 11 8 9 12 10 13 16 15 12 10 11 13 14 17 19 18 18 19 15 15 14 13 13 12 12 12
13 11 6 6 18 21 18 14 11 10 9 9 10 9 10 12 14 12 11 9 8 9 11 11 14 18 16 13 12 13 13 14 14 16 18 19 19 14 14 14 13 13 12 12 12
12 15 13 11 13 15 17 15 13 8 9 9 10 9 11 12 11 13 12 9 8 9 8 9 13 15 18 16 13 15 15 14 14 18 18 18 17 15 14 14 13 13 12 12 12
12 17 15 15 14 11 10 10 11 13 10 10 11 11 12 13 13 13 11 10 9 8 10 10 15 15 16 15 14 14 14 14 15 15 16 15 15 14 13 13 12 12 12 11 11
13 14 12 19 12 11 11 13 12 12 12 12 12 12 12 14 14 13 11 11 12 10 11 12 15 14 16 16 15 15 13 14 14 14 15 15 14 12 11 11 12 11 10 10 11
10 10 12 14 14 17 14 13 12 12 11 10 11 12 14 14 12 13 10 10 11 12 13 14 16 18 19 17 13 18 15 14 14 13 13 15 12 11 11 11 11 11 11 11 11